Akron, New York, United States (14001)
Lat: 43.02N, Lon: 78.5W
Wx Zone: NYZ010
Local Info
Past Weather Observations for Today

NOTE: This archive is for the closest National Weather Service station to Akron. Information may differ from the station used for current weather conditions.

Click here for Long-term Archive

Time Weather Temperature Dewpoint Humidity Pressure Winds Precip Visibility
22:27
Overcast
Light Snow
21°F / -6°C 14°F / -10°C 74% 30.01 in
(1016 mb)
NW 9.2 mph
(NW 15 kph)
0.00 in
(0.00 mm)
6SM
21:54
Overcast
Light Snow
21°F / -6°C 16°F / -9°C 80% 30.01 in
(1016 mb)
NW 9.2 mph
(NW 15 kph)
0.00 in
(0.00 mm)
5SM
21:42
Overcast
Light Snow
21°F / -6°C 14°F / -10°C 74% 30.01 in
(1016 mb)
NW 9.2 mph
(NW 15 kph)
0.00 in
(0.00 mm)
4SM
20:54
Overcast
21°F / -6°C 14°F / -10°C 74% 30.01 in
(1016 mb)
NNW 11.5 mph
(NNW 19 kph)
- 10SM
19:54
Overcast
23°F / -5°C 16°F / -9°C 74% 29.98 in
(1015 mb)
NNW 10.4 mph
(NNW 17 kph)
- 10SM
19:07
Overcast
25°F / -4°C 16°F / -9°C 69% 29.95 in
(1014 mb)
NNW 11.5 mph
(NNW 19 kph)
- 10SM
18:54
Overcast
25°F / -4°C 16°F / -9°C 69% 29.95 in
(1014 mb)
NW 11.5 mph
(NW 19 kph)
0.00 in
(0.00 mm)
10SM
18:31
Overcast
Light Snow
25°F / -4°C 16°F / -9°C 69% 29.95 in
(1014 mb)
NW 11.5 mph
(NW 19 kph)
0.00 in
(0.00 mm)
9SM
17:54
Overcast
25°F / -4°C 16°F / -9°C 69% 29.95 in
(1014 mb)
NW 9.2 mph
(NW 15 kph)
0.00 in
(0.00 mm)
10SM
16:54
Overcast
Light Snow
27°F / -3°C 18°F / -8°C 69% 29.92 in
(1013 mb)
NW 9.2 mph
(NW 15 kph)
0.00 in
(0.00 mm)
8SM
15:54
Overcast
Light Snow
27°F / -3°C 18°F / -8°C 69% 29.89 in
(1012 mb)
NW 9.2 mph
(NW 15 kph)
0.00 in
(0.00 mm)
5SM
15:35
Overcast
Light Snow
27°F / -3°C 19°F / -7°C 74% 29.89 in
(1012 mb)
NW 11.5 mph
(NW 19 kph)
0.00 in
(0.00 mm)
4SM
14:54
Overcast
Light Snow
28°F / -2°C 19°F / -7°C 69% 29.89 in
(1012 mb)
NW 11.5 mph
(NW 19 kph)
0.00 in
(0.00 mm)
2 1/2SM
13:54
Overcast
Light Snow
27°F / -3°C 21°F / -6°C 80% 29.89 in
(1012 mb)
NW 11.5 mph
(NW 19 kph)
0.00 in
(0.00 mm)
2SM
13:47
Overcast
Light Snow
27°F / -3°C 21°F / -6°C 80% 29.89 in
(1012 mb)
NW 10.4 mph
(NW 17 kph)
0.00 in
(0.00 mm)
2SM
12:54
Overcast
Light Snow
28°F / -2°C 21°F / -6°C 74% 29.89 in
(1012 mb)
NW 10.4 mph
(NW 17 kph)
0.01 in
(0.25 mm)
2 1/2SM
12:51
Overcast
Light Snow
28°F / -2°C 21°F / -6°C 74% 29.89 in
(1012 mb)
NW 9.2 mph
(NW 15 kph)
0.01 in
(0.25 mm)
2 1/2SM
12:36
Overcast
Light Snow
27°F / -3°C 21°F / -6°C 80% 29.89 in
(1012 mb)
NW 11.5 mph
(NW 19 kph)
0.00 in
(0.00 mm)
2 1/2SM
11:54
Overcast
Light Snow
28°F / -2°C 21°F / -6°C 74% 29.89 in
(1012 mb)
NNW 11.5 mph
(NNW 19 kph)
0.01 in
(0.25 mm)
6SM
11:40
Overcast
Light Snow
28°F / -2°C 23°F / -5°C 80% 29.89 in
(1012 mb)
NNW 11.5 mph
(NNW 19 kph)
0.01 in
(0.25 mm)
5SM
11:23
Overcast
Light Snow
28°F / -2°C 23°F / -5°C 80% 29.86 in
(1011 mb)
NW 10.4 mph
(NW 17 kph)
0.01 in
(0.25 mm)
4SM
11:10
Overcast
Light Snow
28°F / -2°C 25°F / -4°C 86% 29.86 in
(1011 mb)
NNW 11.5 mph
(NNW 19 kph)
0.01 in
(0.25 mm)
1 1/2SM
10:54
Overcast
Light Snow
28°F / -2°C 25°F / -4°C 86% 29.86 in
(1011 mb)
NW 11.5 mph
(NW 19 kph)
0.01 in
(0.25 mm)
3/4SM
10:52
Overcast
Light Snow
28°F / -2°C 25°F / -4°C 86% 29.86 in
(1011 mb)
NNW 10.4 mph
(NNW 17 kph)
0.01 in
(0.25 mm)
3/4SM
10:49
Overcast
Light Snow
30°F / -1°C 25°F / -4°C 80% 29.86 in
(1011 mb)
NNW 8.1 mph
(NNW 13 kph)
0.01 in
(0.25 mm)
1 1/4SM
10:30
Overcast
Light Snow
30°F / -1°C 25°F / -4°C 80% 29.86 in
(1011 mb)
SSW 9.2 mph
(SSW 15 kph)
0.00 in
(0.00 mm)
1 1/2SM
10:24
Overcast
Light Snow
30°F / -1°C 25°F / -4°C 80% 29.86 in
(1011 mb)
SSW 10.4 mph
(SSW 17 kph)
0.00 in
(0.00 mm)
2SM
09:54
Overcast
Light Snow
30°F / -1°C 25°F / -4°C 80% 29.86 in
(1011 mb)
SSW 9.2 mph
(SSW 15 kph)
0.00 in
(0.00 mm)
6SM
08:54
Overcast
Light Snow
30°F / -1°C 25°F / -4°C 80% 29.86 in
(1011 mb)
SSW 5.8 mph
(SSW 9 kph)
0.00 in
(0.00 mm)
6SM
08:52
Overcast
Light Snow
30°F / -1°C 25°F / -4°C 80% 29.86 in
(1011 mb)
W 4.6 mph
(W 7 kph)
0.00 in
(0.00 mm)
6SM
07:57
Overcast
Light Snow
30°F / -1°C 25°F / -4°C 80% 29.86 in
(1011 mb)
W 6.9 mph
(W 11 kph)
0.00 in
(0.00 mm)
10SM
07:54
Overcast
Light Snow
30°F / -1°C 25°F / -4°C 80% 29.86 in
(1011 mb)
WNW 8.1 mph
(WNW 13 kph)
0.00 in
(0.00 mm)
10SM
07:50
Overcast
Light Snow
30°F / -1°C 25°F / -4°C 80% 29.83 in
(1010 mb)
W 8.1 mph
(W 13 kph)
0.00 in
(0.00 mm)
10SM
06:54
Overcast
30°F / -1°C 27°F / -3°C 86% 29.83 in
(1010 mb)
WNW 9.2 mph
(WNW 15 kph)
- 10SM
06:26
Overcast
30°F / -1°C 27°F / -3°C 86% 29.83 in
(1010 mb)
WNW 5.8 mph
(WNW 9 kph)
- 10SM
05:54
Overcast
30°F / -1°C 28°F / -2°C 93% 29.83 in
(1010 mb)
W 11.5 mph
(W 19 kph)
- 10SM
04:54
Overcast
Fog And Mist
30°F / -1°C 28°F / -2°C 93% 29.83 in
(1010 mb)
SW 4.6 mph
(SW 7 kph)
- 5SM
03:54
Overcast
Fog And Mist
30°F / -1°C 28°F / -2°C 93% 29.83 in
(1010 mb)
SW 4.6 mph
(SW 7 kph)
- 4SM
03:02
Overcast
Fog And Mist
30°F / -1°C 30°F / -1°C 100% 29.83 in
(1010 mb)
SW 5.8 mph
(SW 9 kph)
- 5SM
02:54
Overcast
Fog And Mist
30°F / -1°C 30°F / -1°C 100% 29.83 in
(1010 mb)
SW 5.8 mph
(SW 9 kph)
- 4SM
02:49
Overcast
Fog And Mist
30°F / -1°C 30°F / -1°C 100% 29.83 in
(1010 mb)
SW 6.9 mph
(SW 11 kph)
- 4SM
01:54
Overcast
Fog And Mist
30°F / -1°C 30°F / -1°C 100% 29.8 in
(1009 mb)
SW 9.2 mph
(SW 15 kph)
- 2 1/2SM
01:49
Overcast
Fog And Mist
30°F / -1°C 30°F / -1°C 100% 29.8 in
(1009 mb)
SW 9.2 mph
(SW 15 kph)
- 2 1/2SM
01:37
Overcast
Fog And Mist
30°F / -1°C 28°F / -2°C 93% 29.8 in
(1009 mb)
SW 9.2 mph
(SW 15 kph)
- 3SM
00:54
Mostly Cloudy
Fog And Mist
32°F / 0°C 30°F / -1°C 93% 29.8 in
(1009 mb)
SW 6.9 mph
(SW 11 kph)
- 4SM
Time Weather Temperature Dewpoint Humidity Pressure Winds Precip Visibility


Weather for websites

WeatherForYou.com, LLC is not responsible for any damages or problems caused by this service. Current weather conditions are obtained from the closest station including government and personal stations which may have varying degrees of accuracy. Weather forecasts are derived from the NOAA NDFD. Like all things, this site belongs to Jesus Christ... He just trusts me to maintain it. If you have any questions or comments email webmaster@weatherforyou.com

Copyright © 2015, WeatherForYou.com LLC. All rights reserved.